| time (UTC) | temp F | wind direction | speed knots | gust knots | rain 1hr in | rain 24hr in | rain mn in | humidity % | barometer mb |
| 20260505235504 | 56 | 61 | 2.6 | 4.3 | 0.00 | 0.00 | 0.00 | 72 | 1017.1 |
| 20260505235006 | 56 | 61 | 1.7 | 5.2 | 0.00 | 0.00 | 0.00 | 72 | 1017.2 |
| 20260505234510 | 55 | 40 | 4.3 | 5.2 | 0.00 | 0.00 | 0.00 | 73 | 1017.2 |
| 20260505234003 | 55 | 30 | 1.7 | 5.2 | 0.00 | 0.00 | 0.00 | 74 | 1017.2 |
| 20260505233501 | 55 | 30 | 2.6 | 5.2 | 0.00 | 0.00 | 0.00 | 73 | 1017.3 |
| 20260505233100 | 55 | 16 | 0.0 | 3.5 | 0.00 | 0.00 | 0.00 | 74 | 1017.2 |
| 20260505232559 | 56 | 95 | 0.0 | 2.6 | 0.00 | 0.00 | 0.00 | 72 | 1017.3 |
| 20260505232059 | 57 | 103 | 0.0 | 1.7 | 0.00 | 0.00 | 0.00 | 74 | 1017.3 |
| 20260505231559 | 57 | 102 | 0.0 | 2.6 | 0.00 | 0.00 | 0.00 | 70 | 1017.3 |
| 20260505231058 | 58 | 101 | 0.9 | 2.6 | 0.00 | 0.00 | 0.00 | 72 | 1017.4 |
| 20260505230559 | 58 | 59 | 0.9 | 1.7 | 0.00 | 0.00 | 0.00 | 72 | 1017.5 |
| 20260505230057 | 57 | 58 | 0.9 | 3.5 | 0.00 | 0.00 | 0.00 | 72 | 1017.5 |
| 20260505225559 | 57 | 57 | 0.9 | 3.5 | 0.00 | 0.00 | 0.00 | 73 | 1017.4 |
| 20260505225058 | 56 | 38 | 0.9 | 3.5 | 0.00 | 0.00 | 0.00 | 73 | 1017.6 |
| 20260505224557 | 56 | 38 | 0.9 | 3.5 | 0.00 | 0.00 | 0.00 | 74 | 1017.7 |
| 20260505224055 | 56 | 38 | 1.7 | 3.5 | 0.00 | 0.00 | 0.00 | 74 | 1017.6 |
| 20260505223555 | 56 | 36 | 1.7 | 3.5 | 0.00 | 0.00 | 0.00 | 73 | 1017.6 |
| 20260505223107 | 56 | 40 | 1.7 | 2.6 | 0.00 | 0.00 | 0.00 | 72 | 1017.6 |
| 20260505222554 | 57 | 40 | 0.0 | 2.6 | 0.00 | 0.00 | 0.00 | 73 | 1017.6 |
| 20260505222054 | 56 | 40 | 0.0 | 2.6 | 0.00 | 0.00 | 0.00 | 74 | 1017.7 |
| 20260505221554 | 56 | 25 | 0.9 | 2.6 | 0.00 | 0.00 | 0.00 | 73 | 1017.7 |
| 20260505221053 | 56 | 15 | 1.7 | 3.5 | 0.00 | 0.00 | 0.00 | 72 | 1017.7 |
| 20260505220551 | 57 | 12 | 1.7 | 3.5 | 0.00 | 0.00 | 0.00 | 72 | 1017.7 |
| 20260505220051 | 57 | 37 | 1.7 | 3.5 | 0.00 | 0.00 | 0.00 | 72 | 1017.7 |
| 20260505215553 | 57 | 71 | 0.9 | 4.3 | 0.00 | 0.00 | 0.00 | 72 | 1017.7 |
| 20260505215050 | 57 | 43 | 2.6 | 5.2 | 0.00 | 0.00 | 0.00 | 72 | 1017.6 |
| 20260505214557 | 57 | 35 | 3.5 | 5.2 | 0.00 | 0.00 | 0.00 | 72 | 1017.6 |
| 20260505214050 | 57 | 42 | 1.7 | 3.5 | 0.00 | 0.00 | 0.00 | 71 | 1017.6 |
| 20260505213547 | 58 | 56 | 0.0 | 2.6 | 0.00 | 0.00 | 0.00 | 71 | 1017.6 |
| 20260505213047 | 57 | 49 | 1.7 | 4.3 | 0.00 | 0.00 | 0.00 | 71 | 1017.6 |
| 20260505212546 | 58 | 46 | 1.7 | 4.3 | 0.00 | 0.00 | 0.00 | 70 | 1017.6 |
| 20260505212045 | 59 | 27 | 0.9 | 3.5 | 0.00 | 0.00 | 0.00 | 68 | 1017.6 |
| 20260505211550 | 59 | 80 | 0.9 | 3.5 | 0.00 | 0.00 | 0.00 | 68 | 1017.6 |
| 20260505211043 | 59 | 82 | 2.6 | 3.5 | 0.00 | 0.00 | 0.00 | 69 | 1017.6 |
| 20260505210540 | 59 | 65 | 1.7 | 4.3 | 0.00 | 0.00 | 0.00 | 70 | 1017.8 |
| 20260505210040 | 58 | 65 | 0.9 | 5.2 | 0.00 | 0.00 | 0.00 | 70 | 1017.7 |
| 20260505205539 | 58 | 48 | 3.5 | 4.3 | 0.00 | 0.00 | 0.00 | 70 | 1017.7 |
| 20260505205040 | 59 | 29 | 2.6 | 4.3 | 0.00 | 0.00 | 0.00 | 69 | 1017.6 |
| 20260505204539 | 59 | 47 | 1.7 | 4.3 | 0.00 | 0.00 | 0.00 | 69 | 1017.6 |
| 20260505204040 | 59 | 43 | 2.6 | 4.3 | 0.00 | 0.00 | 0.00 | 69 | 1017.7 |
| 20260505203539 | 58 | 43 | 1.7 | 4.3 | 0.00 | 0.00 | 0.00 | 70 | 1017.7 |
| 20260505203050 | 58 | 42 | 3.5 | 4.3 | 0.00 | 0.00 | 0.00 | 70 | 1017.7 |
| 20260505202539 | 59 | 11 | 2.6 | 4.3 | 0.00 | 0.00 | 0.00 | 69 | 1017.7 |
| 20260505202039 | 59 | 11 | 1.7 | 5.2 | 0.00 | 0.00 | 0.00 | 67 | 1017.8 |
| 20260505201538 | 60 | 30 | 2.6 | 5.2 | 0.00 | 0.00 | 0.00 | 66 | 1017.8 |
| 20260505201038 | 61 | 15 | 1.7 | 4.3 | 0.00 | 0.00 | 0.00 | 67 | 1017.8 |
| 20260505200538 | 61 | 55 | 2.6 | 5.2 | 0.00 | 0.00 | 0.00 | 68 | 1017.7 |
| 20260505200038 | 60 | 52 | 1.7 | 5.2 | 0.00 | 0.00 | 0.00 | 69 | 1017.8 |
| 20260505195539 | 61 | 53 | 3.5 | 5.2 | 0.00 | 0.00 | 0.00 | 69 | 1017.7 |
| 20260505195037 | 61 | 43 | 2.6 | 5.2 | 0.00 | 0.00 | 0.00 | 68 | 1017.8 |
| 20260505194542 | 61 | 28 | 2.6 | 4.3 | 0.00 | 0.00 | 0.00 | 67 | 1017.7 |
| 20260505194037 | 62 | 30 | 1.7 | 3.5 | 0.00 | 0.00 | 0.00 | 67 | 1017.6 |
| 20260505193537 | 62 | 30 | 0.0 | 2.6 | 0.00 | 0.00 | 0.00 | 67 | 1017.6 |
| 20260505193036 | 62 | 27 | 0.9 | 4.3 | 0.00 | 0.00 | 0.00 | 67 | 1017.6 |
| 20260505192540 | 62 | 36 | 2.6 | 5.2 | 0.00 | 0.00 | 0.00 | 67 | 1017.7 |
| 20260505192036 | 62 | 44 | 2.6 | 5.2 | 0.00 | 0.00 | 0.00 | 68 | 1017.6 |
| 20260505191543 | 62 | 21 | 1.7 | 3.5 | 0.00 | 0.00 | 0.00 | 68 | 1017.6 |
| 20260505191036 | 63 | 20 | 1.7 | 3.5 | 0.00 | 0.00 | 0.00 | 67 | 1017.7 |
| 20260505190535 | 63 | 17 | 1.7 | 3.5 | 0.00 | 0.00 | 0.00 | 66 | 1017.6 |
| 20260505190036 | 64 | 37 | 1.7 | 3.5 | 0.00 | 0.00 | 0.00 | 64 | 1017.6 |
| 20260505185539 | 65 | 10 | 0.9 | 4.3 | 0.00 | 0.00 | 0.00 | 62 | 1017.6 |
| 20260505185035 | 65 | 49 | 1.7 | 4.3 | 0.00 | 0.00 | 0.00 | 60 | 1017.4 |
| 20260505184545 | 66 | 41 | 1.7 | 2.6 | 0.00 | 0.00 | 0.00 | 57 | 1017.4 |
| 20260505184035 | 66 | 355 | 0.9 | 3.5 | 0.00 | 0.00 | 0.00 | 58 | 1017.4 |
| 20260505183537 | 66 | 360 | 0.0 | 3.5 | 0.00 | 0.00 | 0.00 | 57 | 1017.4 |
| 20260505183041 | 67 | 301 | 1.7 | 2.6 | 0.00 | 0.00 | 0.00 | 55 | 1017.3 |
| 20260505182538 | 67 | 292 | 0.0 | 3.5 | 0.00 | 0.00 | 0.00 | 54 | 1017.2 |
| 20260505182034 | 67 | 299 | 2.6 | 3.5 | 0.00 | 0.00 | 0.00 | 55 | 1017.3 |
| 20260505181535 | 67 | 273 | 1.7 | 4.3 | 0.00 | 0.00 | 0.00 | 55 | 1017.3 |
| 20260505181037 | 67 | 246 | 1.7 | 4.3 | 0.00 | 0.00 | 0.00 | 54 | 1017.2 |
| 20260505180536 | 68 | 282 | 1.7 | 3.5 | 0.00 | 0.00 | 0.00 | 53 | 1017.1 |
| 20260505180034 | 68 | 223 | 1.7 | 3.5 | 0.00 | 0.00 | 0.00 | 52 | 1017.1 |
| 20260505175533 | 68 | 241 | 1.7 | 2.6 | 0.00 | 0.00 | 0.00 | 51 | 1017.0 |
| 20260505175033 | 69 | 246 | 0.0 | 2.6 | 0.00 | 0.00 | 0.00 | 50 | 1017.0 |
| 20260505174533 | 69 | 249 | 0.0 | 4.3 | 0.00 | 0.00 | 0.00 | 49 | 1017.0 |
| 20260505174033 | 69 | 259 | 2.6 | 6.1 | 0.00 | 0.00 | 0.00 | 48 | 1017.0 |
| 20260505173533 | 69 | 270 | 3.5 | 6.1 | 0.00 | 0.00 | 0.00 | 48 | 1016.9 |
| 20260505173033 | 69 | 269 | 1.7 | 3.5 | 0.00 | 0.00 | 0.00 | 47 | 1016.8 |
| 20260505172532 | 70 | 271 | 2.6 | 5.2 | 0.00 | 0.00 | 0.00 | 47 | 1016.8 |
| 20260505172033 | 70 | 181 | 3.5 | 5.2 | 0.00 | 0.00 | 0.00 | 49 | 1016.9 |
| 20260505171534 | 70 | 144 | 0.9 | 7.0 | 0.00 | 0.00 | 0.00 | 50 | 1016.9 |
| 20260505171032 | 70 | 117 | 4.3 | 7.0 | 0.00 | 0.00 | 0.00 | 49 | 1017.0 |
| 20260505170532 | 70 | 155 | 2.6 | 7.0 | 0.00 | 0.00 | 0.00 | 50 | 1017.1 |
| 20260505170036 | 70 | 161 | 4.3 | 7.0 | 0.00 | 0.00 | 0.00 | 50 | 1017.1 |
| 20260505165531 | 70 | 155 | 4.3 | 7.8 | 0.00 | 0.00 | 0.00 | 50 | 1016.9 |
| 20260505165031 | 71 | 142 | 3.5 | 7.8 | 0.00 | 0.00 | 0.00 | 51 | 1016.9 |
| 20260505164535 | 71 | 155 | 2.6 | 8.7 | 0.00 | 0.00 | 0.00 | 51 | 1016.9 |
| 20260505164030 | 71 | 166 | 5.2 | 8.7 | 0.00 | 0.00 | 0.00 | 50 | 1017.0 |
| 20260505163529 | 72 | 155 | 2.6 | 7.8 | 0.00 | 0.00 | 0.00 | 49 | 1017.0 |
| 20260505163029 | 72 | 173 | 4.3 | 6.1 | 0.00 | 0.00 | 0.00 | 49 | 1017.1 |
| 20260505162532 | 73 | 195 | 3.5 | 4.3 | 0.00 | 0.00 | 0.00 | 37 | 1017.1 |
| 20260505162029 | 73 | 196 | 1.7 | 6.1 | 0.00 | 0.00 | 0.00 | 37 | 1017.0 |
| 20260505161529 | 73 | 171 | 3.5 | 7.8 | 0.00 | 0.00 | 0.00 | 37 | 1017.0 |
| 20260505161031 | 73 | 225 | 2.6 | 5.2 | 0.00 | 0.00 | 0.00 | 37 | 1016.9 |
| 20260505160527 | 74 | 244 | 3.5 | 7.0 | 0.00 | 0.00 | 0.00 | 37 | 1016.8 |
| 20260505153016 | 74 | 240 | 4.3 | 6.1 | 0.00 | 0.00 | 0.00 | 36 | 1016.7 |
| 20260505152516 | 74 | 252 | 3.5 | 7.0 | 0.00 | 0.00 | 0.00 | 36 | 1016.7 |
| 20260505152014 | 74 | 259 | 5.2 | 7.0 | 0.00 | 0.00 | 0.00 | 36 | 1016.6 |
| 20260505151517 | 74 | 226 | 5.2 | 7.8 | 0.00 | 0.00 | 0.00 | 37 | 1016.5 |
| 20260505151013 | 74 | 265 | 4.3 | 7.8 | 0.00 | 0.00 | 0.00 | 37 | 1016.5 |
| 20260505150513 | 74 | 252 | 4.3 | 10.4 | 0.00 | 0.00 | 0.00 | 37 | 1016.6 |
| 20260505140503 | 74 | 224 | 6.1 | 9.6 | 0.00 | 0.00 | 0.00 | 34 | 1016.7 |
| 20260505124556 | 74 | 219 | 7.8 | 13.0 | 0.00 | 0.00 | 0.00 | 33 | 1017.3 |
| 20260505124053 | 75 | 193 | 6.1 | 11.3 | 0.00 | 0.00 | 0.00 | 33 | 1017.2 |
| 20260505123552 | 75 | 229 | 5.2 | 10.4 | 0.00 | 0.00 | 0.00 | 33 | 1017.3 |
| 20260505123054 | 75 | 243 | 7.8 | 13.9 | 0.00 | 0.00 | 0.00 | 33 | 1017.3 |
| 20260505122550 | 75 | 203 | 6.1 | 13.9 | 0.00 | 0.00 | 0.00 | 33 | 1017.3 |
| 20260505122050 | 75 | 188 | 6.1 | 10.4 | 0.00 | 0.00 | 0.00 | 34 | 1017.3 |
| 20260505121551 | 76 | 180 | 6.1 | 10.4 | 0.00 | 0.00 | 0.00 | 33 | 1017.4 |
| 20260505121049 | 75 | 281 | 6.1 | 11.3 | 0.00 | 0.00 | 0.00 | 34 | 1017.7 |
| 20260505120548 | 74 | 188 | 4.3 | 11.3 | 0.00 | 0.00 | 0.00 | 35 | 1017.7 |
| 20260505120057 | 74 | 207 | 4.3 | 14.8 | 0.00 | 0.00 | 0.00 | 36 | 1017.8 |
| 20260505115548 | 74 | 215 | 8.7 | 14.8 | 0.00 | 0.00 | 0.00 | 35 | 1017.8 |
| 20260505115048 | 74 | 170 | 7.8 | 13.0 | 0.00 | 0.00 | 0.00 | 35 | 1017.7 |
| 20260505114547 | 74 | 159 | 8.7 | 13.9 | 0.00 | 0.00 | 0.00 | 36 | 1017.8 |
| 20260505114046 | 74 | 188 | 8.7 | 13.9 | 0.00 | 0.00 | 0.00 | 36 | 1017.8 |
| 20260505113547 | 75 | 167 | 7.0 | 14.8 | 0.00 | 0.00 | 0.00 | 37 | 1017.7 |
| 20260505113049 | 76 | 192 | 5.2 | 13.9 | 0.00 | 0.00 | 0.00 | 37 | 1017.6 |
| 20260505112544 | 75 | 244 | 6.1 | 17.4 | 0.00 | 0.00 | 0.00 | 38 | 1017.7 |
| 20260505112044 | 76 | 291 | 9.6 | 17.4 | 0.00 | 0.00 | 0.00 | 34 | 1017.7 |
| 20260505111546 | 75 | 277 | 5.2 | 13.9 | 0.00 | 0.00 | 0.00 | 37 | 1017.8 |
| 20260505111045 | 75 | 255 | 6.1 | 8.7 | 0.00 | 0.00 | 0.00 | 39 | 1017.7 |
| 20260505110541 | 75 | 182 | 4.3 | 8.7 | 0.00 | 0.00 | 0.00 | 36 | 1017.8 |
| 20260505102035 | 73 | 175 | 4.3 | 13.0 | 0.00 | 0.00 | 0.00 | 38 | 1018.0 |
| 20260505101536 | 73 | 225 | 7.0 | 13.0 | 0.00 | 0.00 | 0.00 | 39 | 1018.2 |
| 20260505101032 | 74 | 250 | 7.8 | 13.0 | 0.00 | 0.00 | 0.00 | 38 | 1018.2 |
| 20260505100531 | 73 | 217 | 7.8 | 13.9 | 0.00 | 0.00 | 0.00 | 39 | 1018.0 |
| 20260505100034 | 73 | 253 | 7.8 | 12.2 | 0.00 | 0.00 | 0.00 | 39 | 1018.1 |
| 20260505095527 | 73 | 263 | 7.8 | 13.0 | 0.00 | 0.00 | 0.00 | 39 | 1018.1 |
| 20260505095026 | 73 | 237 | 5.2 | 11.3 | 0.00 | 0.00 | 0.00 | 40 | 1018.1 |
| 20260505094527 | 72 | 241 | 4.3 | 11.3 | 0.00 | 0.00 | 0.00 | 40 | 1018.3 |
| 20260505094024 | 72 | 271 | 1.7 | 13.0 | 0.00 | 0.00 | 0.00 | 39 | 1018.3 |
| 20260505093523 | 72 | 288 | 8.7 | 13.0 | 0.00 | 0.00 | 0.00 | 40 | 1018.4 |
| 20260505093025 | 72 | 259 | 7.8 | 12.2 | 0.00 | 0.00 | 0.00 | 39 | 1018.5 |
| 20260505092521 | 72 | 293 | 7.8 | 11.3 | 0.00 | 0.00 | 0.00 | 40 | 1018.5 |
| 20260505092020 | 72 | 242 | 6.1 | 11.3 | 0.00 | 0.00 | 0.00 | 41 | 1018.5 |
| 20260505091519 | 72 | 211 | 5.2 | 13.9 | 0.00 | 0.00 | 0.00 | 40 | 1018.5 |
| 20260505091017 | 71 | 222 | 7.8 | 13.9 | 0.00 | 0.00 | 0.00 | 41 | 1018.5 |
| 20260505090516 | 72 | 261 | 6.1 | 9.6 | 0.00 | 0.00 | 0.00 | 41 | 1018.5 |
| 20260505090020 | 71 | 248 | 5.2 | 8.7 | 0.00 | 0.00 | 0.00 | 40 | 1018.4 |
| 20260505085515 | 71 | 219 | 6.1 | 8.7 | 0.00 | 0.00 | 0.00 | 41 | 1018.5 |
| 20260505085014 | 71 | 234 | 5.2 | 10.4 | 0.00 | 0.00 | 0.00 | 40 | 1018.4 |
| 20260505084525 | 70 | 200 | 4.3 | 8.7 | 0.00 | 0.00 | 0.00 | 43 | 1018.6 |
| 20260505084011 | 70 | 208 | 3.5 | 8.7 | 0.00 | 0.00 | 0.00 | 42 | 1018.6 |
| 20260505083510 | 70 | 215 | 2.6 | 7.0 | 0.00 | 0.00 | 0.00 | 42 | 1018.7 |
| 20260505083010 | 71 | 186 | 3.5 | 7.0 | 0.00 | 0.00 | 0.00 | 42 | 1018.8 |
| 20260505082509 | 70 | 225 | 5.2 | 9.6 | 0.00 | 0.00 | 0.00 | 43 | 1018.9 |
| 20260505082008 | 70 | 256 | 5.2 | 9.6 | 0.00 | 0.00 | 0.00 | 43 | 1018.8 |
| 20260505081508 | 69 | 208 | 3.5 | 7.8 | 0.00 | 0.00 | 0.00 | 44 | 1018.9 |
| 20260505081005 | 69 | 219 | 4.3 | 7.0 | 0.00 | 0.00 | 0.00 | 43 | 1018.9 |
| 20260505080507 | 68 | 208 | 3.5 | 7.0 | 0.00 | 0.00 | 0.00 | 45 | 1018.9 |
| 20260505080008 | 68 | 259 | 1.7 | 7.0 | 0.00 | 0.00 | 0.00 | 46 | 1018.9 |
| 20260505075502 | 67 | 211 | 3.5 | 6.1 | 0.00 | 0.00 | 0.00 | 46 | 1018.9 |
| 20260505075101 | 67 | 217 | 2.6 | 6.1 | 0.00 | 0.00 | 0.00 | 46 | 1019.0 |
| 20260505074559 | 67 | 248 | 2.6 | 7.8 | 0.00 | 0.00 | 0.00 | 46 | 1018.9 |
| 20260505074058 | 66 | 257 | 4.3 | 7.8 | 0.00 | 0.00 | 0.00 | 48 | 1018.9 |
| 20260505073557 | 66 | 272 | 4.3 | 7.8 | 0.00 | 0.00 | 0.00 | 47 | 1018.9 |
| 20260505073058 | 66 | 271 | 2.6 | 5.2 | 0.00 | 0.00 | 0.00 | 47 | 1019.0 |
| 20260505072558 | 65 | 217 | 1.7 | 4.3 | 0.00 | 0.00 | 0.00 | 49 | 1018.9 |
| 20260505072056 | 66 | 243 | 2.6 | 4.3 | 0.00 | 0.00 | 0.00 | 47 | 1018.9 |
| 20260505071552 | 65 | 203 | 0.0 | 4.3 | 0.00 | 0.00 | 0.00 | 50 | 1019.0 |
| 20260505071050 | 65 | 263 | 2.6 | 4.3 | 0.00 | 0.00 | 0.00 | 50 | 1018.9 |
| 20260505070549 | 64 | 256 | 0.9 | 3.5 | 0.00 | 0.00 | 0.00 | 51 | 1018.9 |
| 20260505070101 | 64 | 214 | 1.7 | 3.5 | 0.00 | 0.00 | 0.00 | 52 | 1018.9 |
| 20260505065547 | 63 | 209 | 2.6 | 4.3 | 0.00 | 0.00 | 0.00 | 52 | 1018.8 |
| 20260505065045 | 63 | 249 | 0.9 | 4.3 | 0.00 | 0.00 | 0.00 | 53 | 1018.8 |
| 20260505064537 | 62 | 225 | 1.7 | 4.3 | 0.00 | 0.00 | 0.00 | 54 | 1018.8 |
| 20260505064033 | 62 | 259 | 1.7 | 3.5 | 0.00 | 0.00 | 0.00 | 54 | 1018.8 |
| 20260505063533 | 62 | 226 | 0.0 | 3.5 | 0.00 | 0.00 | 0.00 | 54 | 1018.9 |
| 20260505063031 | 62 | 198 | 1.7 | 3.5 | 0.00 | 0.00 | 0.00 | 54 | 1018.8 |
| 20260505062530 | 62 | 248 | 0.0 | 3.5 | 0.00 | 0.00 | 0.00 | 55 | 1018.8 |
| 20260505062027 | 61 | 273 | 1.7 | 3.5 | 0.00 | 0.00 | 0.00 | 57 | 1018.7 |
| 20260505061531 | 61 | 265 | 1.7 | 3.5 | 0.00 | 0.00 | 0.00 | 57 | 1018.7 |
| 20260505061029 | 60 | 264 | 0.9 | 2.6 | 0.00 | 0.00 | 0.00 | 58 | 1018.7 |
| 20260505060525 | 61 | 317 | 0.9 | 2.6 | 0.00 | 0.00 | 0.00 | 57 | 1018.6 |
| 20260505060025 | 60 | 281 | 0.9 | 2.6 | 0.00 | 0.00 | 0.00 | 58 | 1018.7 |
| 20260505055522 | 60 | 275 | 0.0 | 2.6 | 0.00 | 0.00 | 0.00 | 59 | 1018.8 |
| 20260505055021 | 59 | 275 | 0.0 | 2.6 | 0.00 | 0.00 | 0.00 | 60 | 1018.7 |
| 20260505054522 | 59 | 61 | 0.9 | 2.6 | 0.00 | 0.00 | 0.00 | 61 | 1018.8 |
| 20260505054018 | 58 | 344 | 0.9 | 2.6 | 0.00 | 0.00 | 0.00 | 63 | 1018.7 |
| 20260505053517 | 58 | 332 | 0.9 | 2.6 | 0.00 | 0.00 | 0.00 | 64 | 1018.8 |
| 20260505053022 | 58 | 331 | 0.0 | 2.6 | 0.00 | 0.00 | 0.00 | 65 | 1018.8 |
| 20260505052514 | 57 | 338 | 0.0 | 3.5 | 0.00 | 0.00 | 0.00 | 69 | 1018.8 |
| 20260505052015 | 56 | 340 | 1.7 | 3.5 | 0.00 | 0.00 | 0.00 | 70 | 1018.7 |
| 20260505051514 | 56 | 294 | 0.0 | 2.6 | 0.00 | 0.00 | 0.00 | 70 | 1018.7 |
| 20260505051010 | 56 | 304 | 0.0 | 2.6 | 0.00 | 0.00 | 0.00 | 71 | 1018.7 |
| 20260505050514 | 55 | 319 | 0.0 | 2.6 | 0.00 | 0.00 | 0.00 | 71 | 1018.7 |
| 20260505041601 | 49 | 39 | 1.7 | 4.3 | 0.00 | 0.00 | 0.00 | 79 | 1018.5 |
| 20260505041053 | 49 | 50 | 2.6 | 4.3 | 0.00 | 0.00 | 0.00 | 78 | 1018.5 |
| 20260505040552 | 49 | 355 | 0.9 | 4.3 | 0.00 | 0.00 | 0.00 | 79 | 1018.5 |
| 20260505040100 | 48 | 35 | 1.7 | 4.3 | 0.00 | 0.00 | 0.00 | 79 | 1018.4 |
| 20260505035548 | 48 | 42 | 0.9 | 3.5 | 0.00 | 0.00 | 0.00 | 79 | 1018.4 |
| 20260505035050 | 48 | 18 | 0.9 | 2.6 | 0.00 | 0.00 | 0.00 | 79 | 1018.4 |
| 20260505034547 | 49 | 15 | 0.9 | 2.6 | 0.00 | 0.00 | 0.00 | 79 | 1018.4 |
| 20260505034047 | 48 | 15 | 0.9 | 4.3 | 0.00 | 0.00 | 0.00 | 78 | 1018.4 |
| 20260505033547 | 49 | 11 | 1.7 | 4.3 | 0.00 | 0.00 | 0.00 | 79 | 1018.5 |
| 20260505033049 | 48 | 50 | 1.7 | 3.5 | 0.00 | 0.00 | 0.00 | 79 | 1018.5 |
| 20260505032546 | 48 | 50 | 0.9 | 2.6 | 0.00 | 0.00 | 0.00 | 79 | 1018.4 |
| 20260505032049 | 48 | 54 | 0.9 | 3.5 | 0.00 | 0.00 | 0.00 | 79 | 1018.4 |
| 20260505031550 | 48 | 46 | 1.7 | 4.3 | 0.00 | 0.00 | 0.00 | 80 | 1018.4 |
| 20260505031044 | 47 | 55 | 2.6 | 5.2 | 0.00 | 0.00 | 0.00 | 80 | 1018.4 |
| 20260505030543 | 47 | 21 | 2.6 | 5.2 | 0.00 | 0.00 | 0.00 | 79 | 1018.4 |
| 20260505030044 | 47 | 11 | 1.7 | 3.5 | 0.00 | 0.00 | 0.00 | 79 | 1018.5 |
| 20260505025543 | 47 | 65 | 0.9 | 3.5 | 0.00 | 0.00 | 0.00 | 79 | 1018.4 |
| 20260505025045 | 47 | 44 | 1.7 | 4.3 | 0.00 | 0.00 | 0.00 | 79 | 1018.4 |
| 20260505024541 | 47 | 50 | 2.6 | 4.3 | 0.00 | 0.00 | 0.00 | 78 | 1018.5 |
| 20260505024040 | 48 | 49 | 1.7 | 3.5 | 0.00 | 0.00 | 0.00 | 78 | 1018.5 |
| 20260505023543 | 48 | 50 | 1.7 | 4.3 | 0.00 | 0.00 | 0.00 | 79 | 1018.5 |
| 20260505023040 | 48 | 62 | 2.6 | 4.3 | 0.00 | 0.00 | 0.00 | 79 | 1018.6 |
| 20260505022539 | 47 | 57 | 2.6 | 4.3 | 0.00 | 0.00 | 0.00 | 79 | 1018.5 |
| 20260505022042 | 47 | 23 | 2.6 | 4.3 | 0.00 | 0.00 | 0.00 | 79 | 1018.6 |
| 20260505021540 | 47 | 32 | 2.6 | 4.3 | 0.00 | 0.00 | 0.00 | 79 | 1018.6 |
| 20260505021037 | 47 | 49 | 2.6 | 4.3 | 0.00 | 0.00 | 0.00 | 79 | 1018.6 |
| 20260505020537 | 47 | 22 | 1.7 | 4.3 | 0.00 | 0.00 | 0.00 | 78 | 1018.6 |
| 20260505020041 | 48 | 36 | 2.6 | 4.3 | 0.00 | 0.00 | 0.00 | 77 | 1018.6 |
| 20260505015537 | 48 | 26 | 2.6 | 4.3 | 0.00 | 0.00 | 0.00 | 77 | 1018.7 |
| 20260505015036 | 48 | 55 | 2.6 | 5.2 | 0.00 | 0.00 | 0.00 | 77 | 1018.7 |
| 20260505014541 | 48 | 46 | 3.5 | 7.8 | 0.00 | 0.00 | 0.00 | 77 | 1018.8 |
| 20260505014135 | 48 | 64 | 4.3 | 7.8 | 0.00 | 0.00 | 0.00 | 77 | 1018.8 |
| 20260505013534 | 48 | 32 | 3.5 | 5.2 | 0.00 | 0.00 | 0.00 | 77 | 1018.8 |
| 20260505013034 | 48 | 29 | 2.6 | 5.2 | 0.00 | 0.00 | 0.00 | 78 | 1018.8 |
| 20260505012534 | 47 | 60 | 3.5 | 6.1 | 0.00 | 0.00 | 0.00 | 78 | 1018.9 |
| 20260505012037 | 47 | 45 | 3.5 | 6.1 | 0.00 | 0.00 | 0.00 | 78 | 1018.8 |
| 20260505011537 | 47 | 31 | 4.3 | 7.0 | 0.00 | 0.00 | 0.00 | 78 | 1018.8 |
| 20260505011032 | 47 | 24 | 2.6 | 5.2 | 0.00 | 0.00 | 0.00 | 78 | 1018.8 |
| 20260505010535 | 47 | 28 | 4.3 | 6.1 | 0.00 | 0.00 | 0.00 | 78 | 1018.9 |
| 20260505010033 | 47 | 49 | 4.3 | 6.1 | 0.00 | 0.00 | 0.00 | 78 | 1018.9 |
| 20260505005532 | 47 | 51 | 3.5 | 5.2 | 0.00 | 0.00 | 0.00 | 78 | 1019.0 |
| 20260505005031 | 47 | 24 | 4.3 | 5.2 | 0.00 | 0.00 | 0.00 | 78 | 1019.0 |
| 20260505004531 | 48 | 44 | 4.3 | 5.2 | 0.00 | 0.00 | 0.00 | 77 | 1019.0 |
| 20260505004030 | 48 | 32 | 2.6 | 4.3 | 0.00 | 0.00 | 0.00 | 77 | 1018.9 |
| 20260505003529 | 48 | 44 | 2.6 | 4.3 | 0.00 | 0.00 | 0.00 | 78 | 1019.0 |
| 20260505003029 | 48 | 49 | 2.6 | 4.3 | 0.00 | 0.00 | 0.00 | 78 | 1019.0 |
| 20260505002529 | 48 | 46 | 2.6 | 5.2 | 0.00 | 0.00 | 0.00 | 78 | 1019.2 |
| 20260505002028 | 48 | 35 | 3.5 | 5.2 | 0.00 | 0.00 | 0.00 | 78 | 1019.2 |
| 20260505001527 | 48 | 45 | 3.5 | 5.2 | 0.00 | 0.00 | 0.00 | 78 | 1019.2 |
| 20260505001026 | 48 | 53 | 2.6 | 5.2 | 0.00 | 0.00 | 0.00 | 79 | 1019.3 |
| 20260505000526 | 47 | 43 | 3.5 | 5.2 | 0.00 | 0.00 | 0.00 | 79 | 1019.3 |
| 20260505000040 | 47 | 30 | 3.5 | 4.3 | 0.00 | 0.00 | 0.00 | 79 | 1019.3 |